Location: Dodgeville, WI 53533, USA
(43.0344°N, 90.0900°W)
Time: 15:20:38
(UTC-05:00)

X-37B - Visible Passes

Search period start: 25 September 2022 00:00
Search period end: 05 October 2022 00:00
Orbit: 330 x 340 km, 45.0° (Epoch: 02 September)

Date Brightness Start Highest point End Pass type
(mag) Time Alt. Az. Time Alt. Az. Time Alt. Az.
25 Sep 0.8 05:40:04 26° SW 05:41:23 52° SSE 05:44:12 10° E visible
26 Sep 3.7 04:28:31 12° E 04:28:31 12° E 04:28:54 10° E visible
26 Sep 0.3 05:59:45 17° WSW 06:01:48 81° NNW 06:04:41 10° ENE visible
27 Sep 2.6 04:48:09 26° E 04:48:09 26° E 04:49:38 10° E visible
27 Sep 0.7 06:19:28 10° W 06:22:19 57° N 06:25:09 10° ENE visible
28 Sep 1.0 05:07:45 55° ENE 05:07:45 55° ENE 05:10:07 10° ENE visible
29 Sep 0.6 05:27:20 50° NW 05:27:44 57° N 05:30:34 10° ENE visible
30 Sep 0.7 05:46:55 26° WNW 05:48:17 55° N 05:51:07 10° E visible
01 Oct 3.5 04:35:18 16° ENE 04:35:18 16° ENE 04:36:00 10° ENE visible
01 Oct 0.4 06:06:32 15° WNW 06:08:49 73° NNE 06:11:40 10° E visible
02 Oct 2.5 04:54:57 28° ENE 04:54:57 28° ENE 04:56:33 10° E visible
02 Oct 0.5 06:26:24 10° WNW 06:29:15 62° SSW 06:32:05 10° ESE visible
03 Oct 0.9 05:14:39 58° ENE 05:14:39 58° ENE 05:17:06 10° E visible
04 Oct 0.3 05:34:27 59° SW 05:34:41 63° SSW 05:37:31 10° ESE visible
